TimeCDT,TemperatureF,Dew PointF,Humidity,Sea Level PressureIn,VisibilityMPH,Wind Direction,Wind SpeedMPH,Gust SpeedMPH,PrecipitationIn,Events,Conditions,WindDirDegrees,DateUTC
12:53 AM,64.0,55.9,75,29.48,10.0,SE,10.4,-,N/A,,Partly Cloudy,130,2013-10-11 05:53:00
1:53 AM,66.0,55.9,70,29.49,10.0,SSW,16.1,21.9,N/A,,Scattered Clouds,200,2013-10-11 06:53:00
2:53 AM,60.1,55.0,83,29.44,10.0,ESE,6.9,-,N/A,,Clear,110,2013-10-11 07:53:00
3:53 AM,64.0,52.0,65,29.35,10.0,ESE,18.4,-,N/A,,Partly Cloudy,110,2013-10-11 08:53:00
4:53 AM,64.0,51.1,63,29.37,10.0,SE,19.6,26.5,N/A,,Clear,140,2013-10-11 09:53:00
5:53 AM,62.1,51.1,67,29.37,10.0,SE,12.7,-,N/A,,Clear,130,2013-10-11 10:53:00
6:53 AM,60.1,50.0,69,29.35,10.0,SE,17.3,-,N/A,,Clear,130,2013-10-11 11:53:00
7:53 AM,60.1,50.0,69,29.33,10.0,SE,13.8,-,N/A,,Mostly Cloudy,140,2013-10-11 12:53:00
8:53 AM,60.1,48.9,67,29.29,10.0,ESE,20.7,29.9,N/A,,Mostly Cloudy,120,2013-10-11 13:53:00
9:53 AM,55.9,52.0,87,29.24,2.5,ESE,20.7,26.5,0.07,Rain,Rain,110,2013-10-11 14:53:00
10:07 AM,53.6,50.0,88,29.26,5.0,SE,33.4,42.6,0.02,Rain,Light Rain,140,2013-10-11 15:07:00
10:14 AM,53.6,50.0,88,29.25,4.0,SE,29.9,42.6,0.03,Rain,Light Rain,140,2013-10-11 15:14:00
10:53 AM,54.0,50.0,86,29.20,10.0,ESE,23.0,31.1,0.03,,Overcast,120,2013-10-11 15:53:00
11:42 AM,53.6,51.8,94,29.17,7.0,SSE,10.4,19.6,N/A,,Overcast,160,2013-10-11 16:42:00
11:53 AM,55.0,52.0,89,29.16,10.0,SSW,11.5,-,N/A,,Overcast,210,2013-10-11 16:53:00
12:19 PM,55.4,50.0,82,29.20,10.0,SW,17.3,25.3,N/A,,Mostly Cloudy,230,2013-10-11 17:19:00
12:53 PM,55.9,51.1,84,29.24,8.0,WSW,24.2,29.9,0.00,Rain,Light Rain,250,2013-10-11 17:53:00
1:53 PM,57.0,48.9,74,29.29,10.0,West,28.8,36.8,0.01,,Overcast,260,2013-10-11 18:53:00
2:29 PM,55.4,48.2,77,29.35,10.0,WNW,32.2,42.6,0.00,,Overcast,290,2013-10-11 19:29:00
2:45 PM,53.6,46.4,77,29.38,10.0,WNW,35.7,48.3,0.00,,Overcast,290,2013-10-11 19:45:00
2:53 PM,53.1,46.0,77,29.38,10.0,WNW,33.4,47.2,0.00,,Overcast,290,2013-10-11 19:53:00
3:13 PM,51.8,44.6,76,29.41,10.0,WNW,32.2,42.6,N/A,,Overcast,290,2013-10-11 20:13:00
3:53 PM,51.1,42.1,71,29.45,10.0,WNW,41.4,51.8,N/A,,Overcast,300,2013-10-11 20:53:00
4:53 PM,48.9,39.9,71,29.57,10.0,WNW,31.1,43.7,N/A,,Overcast,290,2013-10-11 21:53:00
5:34 PM,50.0,39.2,66,29.62,10.0,WNW,26.5,39.1,N/A,,Overcast,290,2013-10-11 22:34:00
5:53 PM,50.0,39.9,68,29.63,10.0,WNW,31.1,42.6,N/A,,Overcast,290,2013-10-11 22:53:00
6:53 PM,51.1,39.0,63,29.65,10.0,West,29.9,40.3,N/A,,Overcast,280,2013-10-11 23:53:00
7:53 PM,51.1,39.0,63,29.69,10.0,West,31.1,41.4,N/A,,Mostly Cloudy,280,2013-10-12 00:53:00
8:53 PM,50.0,39.0,66,29.71,10.0,WNW,25.3,38.0,N/A,,Clear,290,2013-10-12 01:53:00
9:53 PM,50.0,39.0,66,29.73,10.0,WNW,26.5,33.4,N/A,,Mostly Cloudy,290,2013-10-12 02:53:00
10:53 PM,48.9,36.0,61,29.78,10.0,WNW,31.1,40.3,N/A,,Mostly Cloudy,300,2013-10-12 03:53:00
11:53 PM,50.0,35.1,57,29.80,10.0,WNW,26.5,34.5,N/A,,Overcast,290,2013-10-12 04:53:00